USA 159 (DSP 21)

Last updated on Fri Jul 11 2025 00:02:42 GMT+0000 (Coordinated Universal Time)

1 26880U 01033A 25191.40911382 -.00000292 00000+0 00000+0 0 9999 2 26880 12.4609 18.7774 0001178 192.9299 174.9598 1.00267110 29541
UTC large
Height (km)
Speed (km/s)
/
Latitude / Longitude
Inclination (degrees)
Orbital Period (minutes)
Azimuth
Elevation
Range (km)
Doppler Factor

Next 0 passes for location: London (51.5072 / 0.1276)

Sorry there are no passes over London.